This is the latest recevied weather packets stored in our database for station/object WC4PEM-7. If no packets are shown the sender has not sent any weather packets the latest 10 day(s).
| Time | Temp. | Humidity | Pressure | Rain* | Wind** | Luminosity | Snow |
|---|---|---|---|---|---|---|---|
| 1777759125 | 21.11° C | 93% | 1010.3 hPa | 0.25 mm | - | - | - |
| 1777758825 | 21.11° C | 93% | 1010.6 hPa | 0.25 mm | - | - | - |
| 1777758525 | 21.11° C | 93% | 1010.6 hPa | 0.25 mm | - | - | - |
| 1777758225 | 21.11° C | 93% | 1011 hPa | 0.25 mm | - | - | - |
| 1777758108 | 21.11° C | 93% | 1011.4 hPa | 0.25 mm | - | - | - |
| 1777757925 | 21.11° C | 93% | 1011.4 hPa | 0.25 mm | - | - | - |
| 1777757625 | 21.11° C | 93% | 1011 hPa | 0.25 mm | - | - | - |
| 1777757325 | 21.11° C | 93% | 1010.6 hPa | 0.76 mm | - | - | - |
| 1777757025 | 21.11° C | 93% | 1010.7 hPa | 2.54 mm | - | - | - |
| 1777756725 | 21.11° C | 93% | 1010.8 hPa | 3.05 mm | - | - | - |
| 1777756425 | 20.56° C | 93% | 1011 hPa | 3.05 mm | - | - | - |
| 1777756125 | 20.56° C | 93% | 1011 hPa | 2.79 mm | - | - | - |
| 1777755825 | 20.56° C | 93% | 1011.1 hPa | 2.79 mm | - | - | - |
| 1777755525 | 20.56° C | 92% | 1011.1 hPa | 2.79 mm | - | - | - |
| 1777755225 | 20.56° C | 92% | 1011.1 hPa | 2.79 mm | - | - | - |
| 1777755026 | 20.56° C | 91% | 1011.3 hPa | 2.79 mm | - | - | - |
| 1777754925 | 20.56° C | 91% | 1011.3 hPa | 2.79 mm | - | - | - |
| 1777754625 | 20.56° C | 91% | 1011.4 hPa | 2.79 mm | - | - | - |
| 1777754325 | 20.56° C | 90% | 1011.1 hPa | 2.79 mm | - | - | - |
| 1777754025 | 21.11° C | 89% | 1011.1 hPa | 2.79 mm | - | - | - |
| 1777753725 | 21.11° C | 88% | 1011.1 hPa | 2.29 mm | - | - | - |
| 1777753425 | 21.11° C | 87% | 1011.5 hPa | 0.51 mm | - | - | - |
| 1777753125 | 21.67° C | 84% | 1011.3 hPa | 0 mm | - | - | - |
| 1777752825 | 22.22° C | 81% | 1011.7 hPa | 0 mm | - | - | - |
| 1777752525 | 23.33° C | 77% | 1011.4 hPa | 0 mm | - | - | - |
* Rain latest hour (hover to see other rain measurements)
** Current wind speed in m/s (hover to see current wind gust speed)